This is the latest recevied weather packets stored in our database for station/object N9BID. If no packets are shown the sender has not sent any weather packets the latest 10 day(s).
| Time | Temp. | Humidity | Pressure | Rain* | Wind** | Luminosity | Snow |
|---|---|---|---|---|---|---|---|
| 1777173865 | 9.44° C | 86% | 1009.7 hPa | 0 mm | - | 0 W/m² | - |
| 1777173564 | 8.89° C | 87% | 1009.7 hPa | 0 mm | - | 0 W/m² | - |
| 1777173260 | 8.89° C | 88% | 1009.8 hPa | 0 mm | - | 0 W/m² | - |
| 1777172956 | 8.89° C | 88% | 1009.6 hPa | 0 mm | - | 0 W/m² | - |
| 1777172654 | 8.89° C | 89% | 1009.7 hPa | 0 mm | - | 0 W/m² | - |
| 1777172349 | 8.89° C | 89% | 1009.7 hPa | 0 mm | - | 0 W/m² | - |
| 1777172045 | 8.89° C | 88% | 1009.6 hPa | 0 mm | - | 0 W/m² | - |
| 1777171742 | 9.44° C | 87% | 1009.4 hPa | 0 mm | - | 0 W/m² | - |
| 1777171438 | 9.44° C | 86% | 1009.5 hPa | 0 mm | - | 0 W/m² | - |
| 1777171133 | 10° C | 85% | 1009.3 hPa | 0 mm | - | 0 W/m² | - |
| 1777170832 | 10° C | 85% | 1009.8 hPa | 0 mm | - | 0 W/m² | - |
| 1777170528 | 10° C | 85% | 1009.3 hPa | 0 mm | - | 0 W/m² | - |
| 1777170225 | 9.44° C | 86% | 1009.5 hPa | 0 mm | - | 0 W/m² | - |
| 1777169922 | 10° C | 84% | 1009.5 hPa | 0 mm | - | 0 W/m² | - |
| 1777169619 | 10° C | 84% | 1009.4 hPa | 0 mm | - | 0 W/m² | - |
| 1777169315 | 10.56° C | 83% | 1009.2 hPa | 0 mm | - | 0 W/m² | - |
| 1777169009 | 10.56° C | 81% | 1009.2 hPa | 0 mm | - | 0 W/m² | - |
| 1777168706 | 11.11° C | 80% | 1009 hPa | 0 mm | - | 0 W/m² | - |
| 1777168402 | 11.67° C | 79% | 1008.9 hPa | 0 mm | - | 0 W/m² | - |
| 1777168100 | 11.67° C | 78% | 1009.1 hPa | 0 mm | - | 0 W/m² | - |
| 1777167797 | 11.67° C | 78% | 1009.2 hPa | 0 mm | - | 0 W/m² | - |
| 1777167492 | 12.22° C | 77% | 1009 hPa | 0 mm | - | 0 W/m² | - |
| 1777167188 | 11.67° C | 77% | 1008.9 hPa | 0 mm | - | 0 W/m² | - |
| 1777166884 | 12.22° C | 75% | 1009.1 hPa | 0 mm | - | 0 W/m² | - |
| 1777166579 | 12.22° C | 75% | 1009 hPa | 0 mm | - | 0 W/m² | - |
* Rain latest hour (hover to see other rain measurements)
** Current wind speed in m/s (hover to see current wind gust speed)